GW1675 Weather Reports


Display with metric or nautical units.
time (UTC)temp
F
wind
direction
speed
MPH
gust
MPH
rain 1hr
in
rain 24hr
in
rain mn
in
humidity
%
barometer
mb
20260506134544 69 160 7.0 17.0 0.00 0.00 0.00 65 1013.3
20260506133056 70 153 5.0 14.0 0.00 0.00 0.00 66 1013.4
20260506131545 69 149 7.0 14.0 0.00 0.00 0.00 66 1013.6
20260506130046 69 146 8.0 13.0 0.00 0.00 0.00 66 1013.6
20260506124545 69 141 5.0 13.0 0.00 0.00 0.00 67 1014.0
20260506123047 69 131 6.0 12.0 0.00 0.00 0.00 67 1014.0
20260506121545 68 129 8.0 14.0 0.00 0.00 0.00 67 1014.3
20260506120044 68 127 7.0 14.0 0.00 0.00 0.00 67 1014.4
20260506114548 68 106 6.0 13.0 0.00 0.00 0.00 67 1014.5
20260506113042 67 106 9.0 13.0 0.00 0.00 0.00 67 1014.6
20260506111549 67 105 7.0 13.0 0.00 0.00 0.00 68 1014.8
20260506110047 67 105 8.0 13.0 0.00 0.00 0.00 68 1014.9
20260506104608 67 105 5.0 12.0 0.00 0.00 0.00 68 1014.9
20260506103044 66 105 7.0 11.0 0.00 0.00 0.00 68 1015.0
20260506101548 66 105 5.0 10.0 0.00 0.00 0.00 68 1014.9
20260506100046 68 105 1.0 8.0 0.00 0.00 0.00 69 1014.9
20260506094540 66 105 3.0 11.0 0.00 0.00 0.00 69 1014.9
20260506093045 66 105 4.0 7.0 0.00 0.00 0.00 70 1014.7
20260506091544 65 105 3.0 12.0 0.00 0.00 0.00 70 1014.8
20260506090047 64 105 2.0 9.0 0.00 0.00 0.00 70 1014.9
20260506084544 64 105 2.0 9.0 0.00 0.00 0.00 70 1014.9
20260506083047 63 105 2.0 9.0 0.00 0.00 0.00 70 1014.9
20260506081557 61 105 4.0 8.0 0.00 0.00 0.00 70 1014.9
20260506073048 59 105 4.0 12.0 0.00 0.00 0.00 70 1015.1
20260506071545 58 105 6.0 13.0 0.00 0.00 0.00 70 1015.0
20260506061552 56 105 7.0 11.0 0.00 0.00 0.00 70 1014.9
20260506044554 55 105 6.0 11.0 0.00 0.00 0.00 68 1014.7
20260506043053 56 105 7.0 11.0 0.00 0.00 0.00 68 1014.7
20260506041546 56 105 7.0 12.0 0.00 0.00 0.00 68 1015.0
20260506040053 56 105 6.0 12.0 0.00 0.00 0.00 68 1014.9
20260506034552 56 105 8.0 13.0 0.00 0.00 0.00 68 1014.9
20260506033045 57 105 7.0 13.0 0.00 0.00 0.00 68 1015.0
20260506031547 57 105 7.0 13.0 0.00 0.00 0.00 68 1015.0
20260506030052 57 105 7.0 13.0 0.00 0.00 0.00 68 1015.2
20260506024547 57 105 6.0 13.0 0.00 0.00 0.00 68 1015.2
20260506023050 58 105 5.0 9.0 0.00 0.00 0.00 68 1015.2
20260506021556 58 105 8.0 13.0 0.00 0.00 0.00 67 1015.4
20260506020044 58 105 6.0 13.0 0.00 0.00 0.00 67 1015.5
20260506014543 58 105 7.0 12.0 0.00 0.00 0.00 67 1015.6
20260506011550 58 104 6.0 15.0 0.00 0.00 0.00 67 1015.8
20260506010055 59 104 8.0 16.0 0.00 0.00 0.00 67 1015.9
20260506004545 59 104 7.0 18.0 0.00 0.00 0.00 67 1016.0
20260506003059 59 100 7.0 15.0 0.00 0.00 0.00 66 1016.2
20260506001544 60 100 5.0 14.0 0.00 0.00 0.00 66 1016.3
20260506000046 60 98 11.0 17.0 0.00 0.00 0.00 66 1016.5
20260505234606 60 97 8.0 19.0 0.00 0.00 0.00 66 1016.5
20260505233042 60 94 9.0 17.0 0.00 0.00 0.00 66 1016.6
20260505231549 60 91 8.0 18.0 0.00 0.00 0.00 65 1016.6
20260505230047 60 91 8.0 14.0 0.00 0.00 0.00 65 1016.7
20260505224545 61 89 8.0 19.0 0.00 0.00 0.00 64 1016.7
20260505223102 61 88 11.0 19.0 0.00 0.00 0.00 64 1016.6
20260505221545 61 91 10.0 16.0 0.00 0.00 0.00 64 1016.7
20260505220047 61 89 9.0 17.0 0.00 0.00 0.00 63 1016.8
20260505214552 61 87 11.0 17.0 0.00 0.00 0.00 63 1016.8
20260505213045 61 88 8.0 17.0 0.00 0.00 0.00 62 1017.0
20260505211552 62 89 9.0 15.0 0.00 0.00 0.00 62 1017.0
20260505210045 62 88 10.0 18.0 0.00 0.00 0.00 62 1017.0
20260505204543 63 91 9.0 16.0 0.00 0.00 0.00 61 1016.7
20260505203051 63 94 7.0 14.0 0.00 0.00 0.00 61 1016.7
20260505201548 64 96 8.0 17.0 0.00 0.00 0.00 60 1016.5
20260505200045 64 101 8.0 15.0 0.00 0.00 0.00 60 1016.5
20260505194545 65 105 8.0 16.0 0.00 0.00 0.00 60 1016.3
20260505193043 66 105 7.0 14.0 0.00 0.00 0.00 59 1016.1
20260505191547 67 106 6.0 12.0 0.00 0.00 0.00 59 1015.8
20260505190044 68 108 5.0 12.0 0.00 0.00 0.00 59 1015.7
20260505184550 69 108 4.0 13.0 0.00 0.00 0.00 59 1015.7
20260505183048 69 109 4.0 10.0 0.00 0.00 0.00 60 1015.7
20260505181541 70 109 10.0 15.0 0.00 0.00 0.00 60 1015.7
20260505180056 71 108 8.0 13.0 0.00 0.00 0.00 60 1015.6
20260505174549 70 111 9.0 17.0 0.00 0.00 0.00 60 1015.5
20260505173044 71 108 10.0 16.0 0.00 0.00 0.00 60 1015.5
20260505171544 72 104 7.0 15.0 0.00 0.00 0.00 61 1015.6
20260505170044 72 113 11.0 18.0 0.00 0.00 0.00 61 1015.6
20260505164545 73 103 9.0 16.0 0.00 0.00 0.00 62 1015.6
20260505163049 73 100 8.0 17.0 0.00 0.00 0.00 62 1015.6
20260505161544 73 113 6.0 12.0 0.00 0.00 0.00 63 1015.7
20260505153055 72 139 4.0 16.0 0.00 0.00 0.00 64 1016.0
20260505151545 72 151 5.0 13.0 0.00 0.00 0.00 64 1016.0